Tracking 17938 objects as of 21-February-2017
HD Live streaming from Space Station
objects crossing your sky now

TURKSAT 2A

Track TURKSAT 2A now!
TURKSAT 2A is classified as:


NORAD ID: 26666
Int'l Code: 2001-002A
Perigee: 36,331.0 km
Apogee: 36,438.4 km
Inclination: 0.9 °
Period: 1,466.4 minutes
Semi major axis: 42755 km
RCS: 3.9 m2 (large)
Launch date: January 10, 2001
Source: Turkey (TURK)
Launch site: FRENCH GUIANA (FRGUI)

32 Ku-band transponders; direct-to-home voice, video, and data transmissions to countries between central Europe and the Indian subcontinent.
Your satellite tracking list
Your tracking list is empty





NASA's NSSDC Master Catalog

Two Line Element Set (TLE):
1 26666U 01002A   17050.36426259 -.00000001  00000-0  00000+0 0  9990
2 26666   0.9061  85.9902 0012557 230.3468  43.5384  0.98206999 58993
Source of the keplerian elements: AFSPC